Regional Weather Roundup
Issued by NWS Kansas City/Pleasant Hill, MO

Home | Current Version | Previous Version | Graphics & Text | Print | Product List | Glossary Off
Versions: 1 2 3 4 5 6 7 8 9 10 11 12 13 14 15 16 17 18 19 20 21 22 23 24 25 26 27 28

000
ASUS43 KEAX 072110
RWREAX

WEATHER ROUNDUP FOR EASTERN KANSAS AND NORTHWEST MISSOURI
NATIONAL WEATHER SERVICE KANSAS CITY/PLEASANT HILL MO
300 PM CST WED DEC 07 2016

KSZ040-057-103>105-MOZ028-029-037-043-072200-
...KANSAS CITY METROPOLITAN AREA...

CITY           SKY/WX    TMP DP  RH WIND       PRES   REMARKS
K.C. INTL      CLOUDY    27  13  55 NW13      30.32R WCI  16
K.C. DOWNTOWN  CLOUDY    27  20  75 NW12      30.33R WCI  17
LEES SUMMIT    LGT SNOW  27  22  81 MISG      30.32R
OLATHE - IXD   LGT SNOW  25  21  85 N12       30.33R FOG     WCI  14
OLATHE - OJC   LGT SNOW  25  21  85 NW10      30.31R FOG     WCI  15
LAWRENCE       CLOUDY    26  20  77 NW13      30.35R WCI  15

$$

MOZ001>008-011>017-020>025-030>033-038>040-044>046-053-054-072200-
...NORTHERN AND CENTRAL MISSOURI...

CITY           SKY/WX    TMP DP  RH WIND       PRES   REMARKS
ST. JOSEPH     CLOUDY    27  13  55 NW14      30.34R WCI  16
MOSBY          CLOUDY    28  19  69 W8        30.32R WCI  20
WARRENSBURG    LGT SNOW  28  23  80 NW6       30.31R WCI  22
WHITEMAN AFB   LGT SNOW  28  28 100 NW8       30.28S VSB 1   WCI  20
CLINTON        LGT SNOW  30  25  80 NW13      30.30R WCI  20
SEDALIA        LGT SNOW  30  25  81 NW9       30.30R WCI  22
WARSAW         NOT AVBL
CHILLICOTHE      N/A     29  13  51 NW9       30.30R WCI  20
KIRKSVILLE     SUNNY     29  12  49 W10       30.24R WCI  20

$$

MOZ041-047>049-056>058-063>065-088>090-097-072200-
...EASTERN AND SOUTHERN MISSOURI...

CITY           SKY/WX    TMP DP  RH WIND       PRES   REMARKS
ST. LOUIS INTL CLOUDY    37  15  40 NW13      30.22F WCI  29
SPIRIT OF STL  CLOUDY    36  19  50 W7        30.23S WCI  30
COLUMBIA       CLOUDY    33  19  56 NW13      30.25R WCI  24
JEFFERSON CITY CLOUDY    33  20  58 NW8       30.27R WCI  26
ROLLA          CLOUDY    34  18  52 NW8       30.21R WCI  27
OSAGE BEACH    CLOUDY    34  17  50 N7        30.26R WCI  28
SPRINGFIELD    CLOUDY    35  14  42 N12       30.21R WCI  27
BRANSON        CLOUDY    34  19  55 CALM      30.20R
JOPLIN         CLOUDY    35  20  54 N10       30.25R WCI  27
WEST PLAINS    CLOUDY    38  14  37 NE7       30.20R WCI  33

$$

IAZ060-094-KSZ022-034>040-054-083-096-NEZ052-066-093-072200-
...KANSAS...SOUTHEAST NEBRASKA AND IOWA...

CITY           SKY/WX    TMP DP  RH WIND       PRES   REMARKS
TOPEKA         CLOUDY    28  19  69 N9        30.35S WCI  19
MANHATTAN      PTSUNNY   28  16  60 N8        30.35S WCI  20
EMPORIA        LGT SNOW  27  24  89 N13       30.32R FOG     WCI  16
CHANUTE        LGT SNOW  29  25  85 N13       30.30R VSB 1   WCI  19
WICHITA        FLURRIES  31  23  72 N21       30.30R WCI  18
OMAHA          PTSUNNY   25   7  46 NW17G26   30.32R WCI  12
LINCOLN        MOSUNNY   26   5  40 NW17      30.35S WCI  13
FALLS CITY     CLOUDY    25   8  48 NW13      30.33R WCI  14
LAMONI         CLOUDY    25  11  55 W20G26    30.26R WCI  11
DES MOINES     CLOUDY    25   9  50 W21G26    30.25R WCI  11

$$





USA.gov is the U.S. government's official web portal to all federal, state and local government web resources and services.